Location: Runa
(38.1429°N, 80.8510°W)
Time: 12:01:54
(UTC+00:00)

ISS - Pass Details

Date: 16 April 2026
Orbit: 414 x 424 km, 51.6° (Epoch: 12 May)

Event Time Altitude Azimuth Distance (km) Brightness Sun altitude
Exits shadow 09:35:08 - 183° (S) 1,632 -1.0 -14.0°
Reaches altitude 10° 09:35:36 10° 178° (S) 1,487 -1.2 -13.9°
Maximum altitude 09:38:03 19° 130° (SE) 1,064 -1.4 -13.5°
Drops below altitude 10° 09:40:31 10° 83° (E) 1,500 0.3 -13.1°
Sets 09:43:01 0° 65° (ENE) 2,371 2.2 -12.6°
